Fairhope, AL

7:44 PM CST on December 16, 2017 (GMT -0600)
Fairhope

Weather History for KCQF - May, 2014

Change the Weather History Date:

Friday, May 16, 2014

  Actual Average (KBFM) Record (KBFM)
Temperature  
Mean Temperature 60 °F -  
Max Temperature 73 °F 81 °F 89 °F (1998)
Min Temperature 46 °F 62 °F 50 °F (2014)
Degree Days  
Heating Degree Days 6    
Growing Degree Days 10 (Base 50)    
Moisture  
Dew Point 51 °F    
Average Humidity 68    
Maximum Humidity 100    
Minimum Humidity 41    
Precipitation  
Precipitation 0.00 in - - ()
Sea Level Pressure  
Sea Level Pressure 30.15 in    
Wind  
Wind Speed 3 mph (WSW)    
Max Wind Speed 12 mph    
Max Gust Speed 17 mph    
Visibility 10 miles    
Events      
Averages and records for this station are not official NWS values.
T = Trace of Precipitation, MM = Missing Value Source: NWS Daily Summary

Daily Weather History Graph

Daily Weather History Graph

Search for Another Location

Airport or City:

Trip Planner

Search our weather history database for the weather conditions in past years. The results will help you decide how hot, cold, wet, or windy it might be!

Date:

Astronomy

May. 16, 2014 Rise Set
Actual Time 5:56 AM CDT 7:39 PM CDT
Civil Twilight 5:30 AM CDT 8:05 PM CDT
Nautical Twilight 4:58 AM CDT 8:37 PM CDT
Astronomical Twilight 4:25 AM CDT 9:11 PM CDT
Moon 9:46 PM CDT (5/16) 7:38 AM CDT (5/16)
Length of Visible Light 14h 35m
Length of Day
13h 42m
Waning Gibbous, 95% of the Moon is Illuminated
May 16
Waning Gibbous
May 21
Last Quarter
May 28
New
Jun 5
First Quarter
Jun 12
Full

Hourly Weather History & Observations

Time (CDT) Temp. Dew Point Humidity Pressure Visibility Wind Dir Wind Speed Gust Speed Precip Events Conditions
12:15 AM 50.0 °F 50.0 °F 100% 30.17 in 10.0 mi Calm Calm - N/A   Clear
12:35 AM 51.8 °F 50.0 °F 94% 30.17 in 10.0 mi Calm Calm - N/A   Clear
1:15 AM 50.0 °F 50.0 °F 100% 30.17 in 10.0 mi Calm Calm - N/A   Clear
1:35 AM 50.0 °F 50.0 °F 100% 30.17 in 10.0 mi Calm Calm - N/A   Clear
1:55 AM 50.0 °F 50.0 °F 100% 30.16 in 10.0 mi Calm Calm - N/A   Clear
2:15 AM 50.0 °F 48.2 °F 94% 30.16 in 10.0 mi Calm Calm - N/A   Clear
2:35 AM 50.0 °F 50.0 °F 100% 30.16 in 10.0 mi Calm Calm - N/A   Clear
2:55 AM 50.0 °F 48.2 °F 94% 30.15 in 10.0 mi Calm Calm - N/A   Clear
3:15 AM 50.0 °F 48.2 °F 94% 30.15 in 10.0 mi Calm Calm - N/A   Clear
3:35 AM 48.2 °F 46.4 °F 93% 30.15 in 10.0 mi Calm Calm - N/A   Clear
3:55 AM 48.2 °F 48.2 °F 100% 30.15 in 7.0 mi Calm Calm - N/A   Clear
4:15 AM 50.0 °F 48.2 °F 94% 30.15 in 10.0 mi Calm Calm - N/A   Clear
4:35 AM 48.2 °F 48.2 °F 100% 30.15 in 10.0 mi Calm Calm - N/A   Clear
4:55 AM 48.2 °F 46.4 °F 93% 30.15 in 10.0 mi Calm Calm - N/A   Clear
5:15 AM 46.4 °F 46.4 °F 100% 30.15 in 10.0 mi Calm Calm - N/A   Clear
5:35 AM 46.4 °F 46.4 °F 100% 30.16 in 10.0 mi Calm Calm - N/A   Clear
5:55 AM 46.4 °F 46.4 °F 100% 30.17 in 10.0 mi Calm Calm - N/A   Clear
6:15 AM 48.2 °F 48.2 °F 100% 30.17 in 10.0 mi Calm Calm - N/A   Clear
6:35 AM 50.0 °F 48.2 °F 94% 30.17 in 10.0 mi Calm Calm - N/A   Clear
6:55 AM 51.8 °F 50.0 °F 94% 30.18 in 10.0 mi Calm Calm - N/A   Clear
7:15 AM 55.4 °F 51.8 °F 88% 30.18 in 10.0 mi Calm Calm - N/A   Clear
7:35 AM 60.8 °F 53.6 °F 77% 30.19 in 10.0 mi NW 3.5 mph - N/A   Clear
7:55 AM 62.6 °F 51.8 °F 68% 30.19 in 10.0 mi NW 4.6 mph - N/A   Clear
8:15 AM 62.6 °F 51.8 °F 68% 30.19 in 10.0 mi WNW 4.6 mph - N/A   Clear
8:35 AM 64.4 °F 50.0 °F 59% 30.19 in 10.0 mi NW 6.9 mph - N/A   Clear
8:55 AM 64.4 °F 48.2 °F 56% 30.20 in 10.0 mi WNW 4.6 mph - N/A   Clear
9:15 AM 64.4 °F 46.4 °F 52% 30.20 in 10.0 mi West 6.9 mph - N/A   Clear
9:35 AM 66.2 °F 48.2 °F 52% 30.20 in 10.0 mi WNW 5.8 mph - N/A   Clear
9:55 AM 68.0 °F 46.4 °F 46% 30.20 in 10.0 mi WNW 6.9 mph - N/A   Clear
10:15 AM 68.0 °F 46.4 °F 46% 30.20 in 10.0 mi West 6.9 mph - N/A   Clear
10:35 AM 68.0 °F 46.4 °F 46% 30.20 in 10.0 mi NW 9.2 mph - N/A   Clear
10:55 AM 68.0 °F 46.4 °F 46% 30.20 in 10.0 mi NW 5.8 mph - N/A   Clear
11:15 AM 69.8 °F 48.2 °F 46% 30.19 in 10.0 mi NW 8.1 mph - N/A   Clear
11:35 AM 69.8 °F 48.2 °F 46% 30.19 in 10.0 mi NW 5.8 mph - N/A   Clear
11:55 AM 69.8 °F 46.4 °F 43% 30.18 in 10.0 mi WNW 6.9 mph - N/A   Clear
12:15 PM 71.6 °F 46.4 °F 41% 30.18 in 10.0 mi NW 9.2 mph - N/A   Clear
12:35 PM 71.6 °F 48.2 °F 43% 30.17 in 10.0 mi NW 9.2 mph - N/A   Clear
12:55 PM 71.6 °F 48.2 °F 43% 30.16 in 10.0 mi NNW 8.1 mph - N/A   Clear
1:15 PM 71.6 °F 48.2 °F 43% 30.16 in 10.0 mi NNW 8.1 mph - N/A   Clear
1:35 PM 73.4 °F 50.0 °F 44% 30.15 in 10.0 mi WNW 6.9 mph - N/A   Clear
1:55 PM 71.6 °F 50.0 °F 46% 30.14 in 10.0 mi NW 5.8 mph - N/A   Clear
2:15 PM 71.6 °F 51.8 °F 50% 30.14 in 10.0 mi WSW 6.9 mph - N/A   Scattered Clouds
2:35 PM 71.6 °F 51.8 °F 50% 30.14 in 10.0 mi SW 9.2 mph - N/A   Clear
2:55 PM 71.6 °F 51.8 °F 50% 30.14 in 10.0 mi SW 8.1 mph - N/A   Scattered Clouds
3:15 PM 69.8 °F 51.8 °F 53% 30.14 in 10.0 mi SW 6.9 mph - N/A   Mostly Cloudy
3:35 PM 71.6 °F 53.6 °F 53% 30.13 in 10.0 mi SW 6.9 mph - N/A   Mostly Cloudy
3:55 PM 71.6 °F 55.4 °F 57% 30.11 in 10.0 mi SSW 8.1 mph - N/A   Mostly Cloudy
4:15 PM 71.6 °F 55.4 °F 57% 30.11 in 10.0 mi SW 11.5 mph 17.3 mph N/A   Mostly Cloudy
4:35 PM 69.8 °F 55.4 °F 60% 30.11 in 10.0 mi SW 10.4 mph 17.3 mph N/A   Overcast
4:55 PM 71.6 °F 55.4 °F 57% 30.11 in 10.0 mi SW 9.2 mph 17.3 mph N/A   Scattered Clouds
5:15 PM 69.8 °F 55.4 °F 60% 30.10 in 10.0 mi SW 11.5 mph 17.3 mph N/A   Mostly Cloudy
5:35 PM 71.6 °F 55.4 °F 57% 30.10 in 10.0 mi SW 10.4 mph - N/A   Scattered Clouds
5:55 PM 71.6 °F 55.4 °F 57% 30.09 in 10.0 mi SW 8.1 mph 16.1 mph N/A   Clear
6:15 PM 69.8 °F 53.6 °F 56% 30.09 in 10.0 mi WSW 11.5 mph 16.1 mph N/A   Clear
6:35 PM 69.8 °F 53.6 °F 56% 30.09 in 10.0 mi SW 9.2 mph - N/A   Clear
6:55 PM 69.8 °F 55.4 °F 60% 30.10 in 10.0 mi SW 6.9 mph - N/A   Clear
7:15 PM 69.8 °F 55.4 °F 60% 30.10 in 10.0 mi WSW 6.9 mph - N/A   Clear
7:35 PM 69.8 °F 55.4 °F 60% 30.10 in 10.0 mi SW 6.9 mph - N/A   Clear
7:55 PM 68.0 °F 55.4 °F 64% 30.11 in 10.0 mi WSW 5.8 mph - N/A   Clear
8:15 PM 68.0 °F 55.4 °F 64% 30.11 in 10.0 mi WSW 6.9 mph - N/A   Clear
8:35 PM 68.0 °F 55.4 °F 64% 30.12 in 10.0 mi WSW 6.9 mph - N/A   Scattered Clouds
8:55 PM 69.8 °F 55.4 °F 60% 30.12 in 10.0 mi WSW 4.6 mph - N/A   Mostly Cloudy
9:15 PM 68.0 °F 55.4 °F 64% 30.13 in 10.0 mi SW 4.6 mph - N/A   Scattered Clouds
9:35 PM 68.0 °F 55.4 °F 64% 30.14 in 10.0 mi SSW 3.5 mph - N/A   Clear
9:55 PM 68.0 °F 55.4 °F 64% 30.14 in 10.0 mi SW 3.5 mph - N/A   Clear
10:15 PM 68.0 °F 57.2 °F 68% 30.14 in 10.0 mi Calm Calm - N/A   Clear
10:35 PM 68.0 °F 57.2 °F 68% 30.15 in 10.0 mi SW 4.6 mph - N/A   Clear
10:55 PM 68.0 °F 59.0 °F 73% 30.15 in 10.0 mi SW 3.5 mph - N/A   Clear
11:15 PM 69.8 °F 59.0 °F 68% 30.15 in 10.0 mi SW 4.6 mph - N/A   Mostly Cloudy
11:35 PM 69.8 °F 59.0 °F 68% 30.15 in 10.0 mi SW 6.9 mph - N/A   Overcast
11:55 PM 69.8 °F 59.0 °F 68% 30.14 in 10.0 mi SW 6.9 mph - N/A   Mostly Cloudy